DateTimeUTC,F1_A11,F1_S11,BsB_S11,BsG_S11,BsR_S11,BbsB_S11,BbsG_S11,BbsR_S11,BaB_A11,BaG_A11,BaR_A11,Tu_S11,T_S11,Uu_S11,U_S11,P_S11,T1_A11
2021-04-03T19:00:00Z,00000200,21000000,,,,,,,-000.20,-000.08,-000.10,15.2,22.7,,00.0,0651.3,30.8
2021-04-03T19:01:00Z,00000200,21000000,,,,,,,-000.03,-000.36,-000.26,15.2,22.7,,00.0,0651.3,30.8
2021-04-03T19:02:00Z,00000200,21000000,,,,,,,0000.24,0000.40,0000.23,15.2,22.7,,00.0,0651.2,30.8
2021-04-03T19:03:00Z,00000200,61000000,,,,,,,0001.22,0001.18,0000.79,15.2,22.7,,00.0,0651.2,30.8
2021-04-03T19:04:00Z,00000200,41000000,0002.18,0001.96,0001.16,-000.11,0000.39,0000.19,0001.03,0000.79,0000.75,15.3,22.4,,00.0,0652.1,30.8
2021-04-03T19:05:00Z,00000200,01000000,0002.80,0002.22,0001.12,0000.89,0000.43,0000.33,0001.41,0001.92,0000.81,15.4,22.4,,00.0,0652.2,30.8
2021-04-03T19:06:00Z,00000200,01000000,0002.52,0002.22,0001.40,0000.54,0000.36,0000.35,0001.29,0000.89,0001.16,15.4,22.4,,00.0,0652.2,30.8
2021-04-03T19:07:00Z,00000200,01000000,0002.60,0002.18,0001.33,0000.72,0000.35,0000.30,0001.04,0000.60,0000.92,15.5,22.4,,00.0,0652.2,30.8
2021-04-03T19:08:00Z,00000200,01000000,0002.47,0002.10,0001.32,0000.17,0000.41,0000.31,0001.73,0001.75,0001.14,15.5,22.4,,00.0,0652.2,30.8
2021-04-03T19:09:00Z,00000200,01000000,0002.65,0002.16,0001.22,0000.42,0000.21,0000.32,0000.98,0001.27,0000.68,15.6,22.4,,00.0,0652.2,30.8
2021-04-03T19:10:00Z,00000200,01000000,0002.87,0002.07,0001.50,0000.17,0000.28,0000.01,0001.31,0000.61,0000.72,15.6,22.5,,00.0,0652.3,30.8
2021-04-03T19:11:00Z,00000200,01000000,0002.22,0001.92,0001.20,0000.26,0000.47,0000.28,0001.49,0001.59,0000.85,15.6,22.4,,00.0,0652.3,30.8
2021-04-03T19:12:00Z,00000200,01000000,0002.82,0002.27,0001.32,0000.77,0000.37,0000.21,0001.19,0001.32,0001.38,15.6,22.4,,00.0,0652.2,30.8
2021-04-03T19:13:00Z,00000200,01000000,0002.81,0001.89,0001.05,0000.69,0000.34,0000.29,0001.42,0000.92,0001.01,15.5,22.4,,00.0,0652.3,30.8
2021-04-03T19:14:00Z,00000200,01000000,0002.74,0002.16,0001.44,0000.28,0000.38,0000.05,0001.05,0001.18,0000.88,15.4,22.4,,00.0,0652.3,30.8
2021-04-03T19:15:00Z,00000200,01000000,0002.76,0001.95,0001.32,0000.32,0000.46,0000.23,0001.10,0000.77,0000.24,15.4,22.4,,00.0,0652.3,30.8
2021-04-03T19:16:00Z,00000200,01000000,0002.31,0002.23,0001.28,0000.39,0000.25,0000.02,0001.07,0000.88,0001.04,15.3,22.3,,00.0,0652.3,30.7
2021-04-03T19:17:00Z,00000200,01000000,0003.08,0002.29,0001.20,0000.31,0000.30,0000.44,0001.45,0001.70,0000.81,15.3,22.2,,00.0,0652.3,30.8
2021-04-03T19:18:00Z,00000200,01000000,0003.23,0001.95,0001.39,0000.23,0000.38,0000.39,0001.54,0001.23,0001.28,15.3,22.3,,00.0,0652.3,30.8
2021-04-03T19:19:00Z,00000200,01000000,0002.43,0001.92,0001.32,0000.84,0000.74,0000.09,0001.02,0001.07,0000.81,15.3,22.3,,00.0,0652.3,30.8
2021-04-03T19:20:00Z,00000200,01000000,0003.08,0002.25,0001.59,0000.42,0000.39,0000.48,0001.38,0001.44,0001.09,15.4,22.3,,00.0,0652.3,30.8
2021-04-03T19:21:00Z,00000200,01000000,0002.91,0002.16,0001.40,0000.45,0000.23,0000.41,0001.35,0000.73,0000.82,15.4,22.3,,00.0,0652.3,30.8
2021-04-03T19:22:00Z,00000200,01000000,0002.98,0002.52,0001.10,0000.35,0000.27,0000.14,0001.30,0001.66,0001.05,15.5,22.3,,00.0,0652.3,30.8
2021-04-03T19:23:00Z,00000200,01000000,0002.98,0001.89,0001.53,0000.42,0000.14,0000.41,0001.36,0001.16,0000.89,15.5,22.3,,00.0,0652.3,30.8
2021-04-03T19:24:00Z,00000200,01000000,0003.37,0002.05,0001.40,0000.32,0000.49,-000.12,0001.44,0001.29,0001.01,15.6,22.3,,00.0,0652.3,30.8
2021-04-03T19:25:00Z,00000200,01000000,0003.19,0002.09,0001.15,0000.60,0000.39,0000.31,0001.07,0001.02,0000.70,15.6,22.4,,00.0,0652.3,30.8
2021-04-03T19:26:00Z,00000200,01000000,0003.02,0002.15,0001.16,0000.44,0000.42,0000.34,0001.02,0000.81,0000.87,15.6,22.4,,00.0,0652.3,30.8
2021-04-03T19:27:00Z,00000200,01000000,0002.84,0001.93,0001.00,0000.15,0000.33,0000.04,0001.42,0000.86,0000.70,15.6,22.4,,00.0,0652.2,30.8
2021-04-03T19:28:00Z,00000200,01000000,0002.48,0001.86,0001.26,0000.10,0000.30,0000.11,0001.43,0001.73,0001.17,15.5,22.4,,00.0,0652.2,30.8
2021-04-03T19:29:00Z,00000200,01000000,0002.66,0002.43,0001.04,0000.22,0000.33,0000.09,0001.47,0001.31,0000.71,15.5,22.3,,00.0,0652.2,30.8
2021-04-03T19:30:00Z,00000200,01010000,0002.18,0002.15,0001.23,0000.04,0000.39,0000.26,0000.93,0000.71,0000.92,15.4,22.3,,00.0,0652.3,30.8
2021-04-03T19:31:00Z,00000200,01000000,0002.55,0002.05,0001.27,0000.47,0000.10,0000.41,0001.29,0001.38,0000.74,15.3,22.3,,00.0,0652.3,30.8
2021-04-03T19:32:00Z,00000200,01000000,0002.87,0002.21,0001.38,0000.10,0000.50,0000.18,0001.33,0001.12,0001.08,15.3,22.2,,00.0,0652.3,30.8
2021-04-03T19:33:00Z,00000200,01000000,0003.03,0002.11,0001.36,0000.43,0000.26,0000.16,0001.31,0001.13,0000.82,15.4,22.2,,00.0,0652.3,30.8
2021-04-03T19:34:00Z,00000200,01000000,0002.45,0002.10,0001.46,0000.41,0000.29,0000.43,0001.16,0001.30,0001.06,15.4,22.2,,00.0,0652.3,30.8
2021-04-03T19:35:00Z,00000200,01000000,0002.64,0002.03,0001.19,0000.55,0000.41,0000.07,0001.45,0001.21,0000.90,15.4,22.3,,00.0,0652.3,30.8
2021-04-03T19:36:00Z,00000200,01000000,0002.47,0002.29,0001.41,0000.08,0000.44,0000.38,0001.26,0001.41,0001.16,15.5,22.3,,00.0,0652.3,30.8
2021-04-03T19:37:00Z,00000200,01000000,0002.38,0002.12,0001.22,0000.85,0000.45,0000.22,0001.25,0001.11,0001.04,15.5,22.3,,00.0,0652.3,30.8
2021-04-03T19:38:00Z,00000200,01000000,0002.55,0002.30,0001.52,0000.24,0000.46,0000.43,0001.37,0001.10,0000.65,15.5,22.3,,00.0,0652.3,30.8
2021-04-03T19:39:00Z,00000200,01000000,0002.81,0002.19,0001.47,0000.47,0000.17,0000.17,0001.09,0001.17,0000.99,15.5,22.3,,00.0,0652.3,30.8
2021-04-03T19:40:00Z,00000200,01000000,0002.29,0002.22,0001.37,0000.39,0000.49,0000.22,0001.37,0000.82,0000.77,15.5,22.3,,00.0,0652.4,30.8
2021-04-03T19:41:00Z,00000200,01000000,0002.56,0002.30,0001.29,-000.43,0000.50,0000.35,0001.06,0001.40,0000.58,15.5,22.3,,00.0,0652.4,30.8
2021-04-03T19:42:00Z,00000200,01000000,0002.75,0002.22,0001.18,0000.18,0000.62,0000.22,0001.62,0001.34,0001.30,15.4,22.3,,00.0,0652.4,30.8
2021-04-03T19:43:00Z,00000200,01000000,0003.17,0002.00,0001.36,0000.43,0000.54,0000.31,0000.88,0001.01,0000.67,15.3,22.3,,00.0,0652.5,30.8
2021-04-03T19:44:00Z,00000200,01000000,0002.60,0002.30,0001.41,0000.40,0000.29,0000.19,0001.58,0001.09,0000.70,15.3,22.2,,00.0,0652.6,30.8
2021-04-03T19:45:00Z,00000200,01000000,0002.84,0002.51,0001.20,0000.43,0000.49,0000.40,0000.88,0001.29,0001.01,15.2,22.2,,00.0,0652.6,30.7
2021-04-03T19:46:00Z,00000200,01000000,0002.42,0002.16,0001.47,0000.56,0000.32,0000.17,0001.17,0000.41,0000.73,15.1,22.1,,00.0,0652.6,30.7
2021-04-03T19:47:00Z,00000200,01000000,0002.99,0001.94,0001.26,0000.65,0000.36,0000.20,0001.36,0001.54,0001.05,15.1,22.1,,00.0,0652.6,30.7
2021-04-03T19:48:00Z,00000200,01000000,0003.39,0002.18,0001.37,0000.16,0000.46,0000.53,0001.29,0001.22,0000.63,15.1,22.1,,00.0,0652.7,30.7
2021-04-03T19:49:00Z,00000200,01000000,0002.88,0002.05,0001.19,0000.22,0000.62,0000.22,0001.20,0001.18,0001.25,15.2,22.1,,00.0,0652.7,30.8
2021-04-03T19:50:00Z,00000200,01000000,0002.48,0002.13,0001.51,0000.30,0000.34,0000.35,0001.35,0001.13,0001.03,15.2,22.1,,00.0,0652.7,30.8
2021-04-03T19:51:00Z,00000200,01000000,0002.74,0002.08,0001.07,0000.72,0000.44,0000.05,0001.55,0001.23,0000.72,15.2,22.1,,00.0,0652.8,30.8
2021-04-03T19:52:00Z,00000200,01000000,0003.09,0002.21,0001.26,0000.27,0000.24,0000.37,0001.02,0001.12,0000.51,15.3,22.1,,00.0,0652.8,30.8
2021-04-03T19:53:00Z,00000200,01000000,0002.98,0002.15,0001.39,0001.03,0000.43,0000.33,0001.43,0001.17,0001.26,15.3,22.2,,00.0,0652.8,30.8
2021-04-03T19:54:00Z,00000200,01000000,0002.90,0002.05,0001.19,0000.63,0000.62,0000.27,0001.28,0001.18,0001.11,15.4,22.2,,00.0,0652.8,30.8
2021-04-03T19:55:00Z,00000200,01000000,0003.09,0002.02,0001.42,0000.10,0000.25,0000.43,0001.09,0001.15,0000.81,15.4,22.2,,00.0,0652.9,30.8
2021-04-03T19:56:00Z,00000200,01000000,0002.66,0002.05,0001.46,0000.18,0000.47,0000.22,0001.08,0001.48,0000.68,15.4,22.2,,00.0,0652.8,30.8
2021-04-03T19:57:00Z,00000200,41000000,,,,,,,0001.33,0001.04,0000.53,15.5,22.2,,00.0,0652.8,30.8
2021-04-03T19:58:00Z,00000200,61000000,,,,,,,-000.40,-001.18,-000.20,15.2,22.4,,00.0,0651.9,30.8
2021-04-03T19:59:00Z,00000200,21000000,,,,,,,0000.17,0000.67,0000.19,15.1,22.5,,00.0,0651.9,30.8
